Hourly Weather Alkuzhi

Today, 6 March, Saturday

Time Temperature Precipitation Wind Pressure Humidity
00:00 -10°C° 0 mm 2 mps 750 mmHg 93%
01:00 -12°C° 0 mm 2 mps 751 mmHg 92%
02:00 -10°C° 0 mm 1 mps 751 mmHg 91%
03:00 -11°C° 0 mm 1 mps 751 mmHg 91%
04:00 -11°C° 0 mm 1 mps 751 mmHg 90%
05:00 -12°C° 0 mm 1 mps 751 mmHg 90%
06:00 -12°C° 0 mm 0 mps 751 mmHg 89%
07:00 -11°C° 0 mm 0 mps 751 mmHg 88%
08:00 -10°C° 0 mm 0 mps 752 mmHg 87%
09:00 -9°C° 0 mm 0 mps 752 mmHg 86%
10:00 -7°C° 0 mm 0 mps 752 mmHg 84%
11:00 -6°C° 0 mm 1 mps 752 mmHg 82%
12:00 -4°C° 0 mm 1 mps 752 mmHg 80%
13:00 -4°C° 0 mm 1 mps 751 mmHg 81%
14:00 -3°C° 0 mm 1 mps 751 mmHg 83%
15:00 -3°C° 0 mm 1 mps 751 mmHg 84%
16:00 -4°C° 0.1 mm 1 mps 751 mmHg 87%
17:00 -7°C° 0.1 mm 2 mps 751 mmHg 90%
18:00 -8°C° 0.1 mm 2 mps 751 mmHg 93%
19:00 -9°C° 0 mm 2 mps 751 mmHg 94%
20:00 -12°C° 0 mm 2 mps 751 mmHg 94%
21:00 -13°C° 0 mm 2 mps 751 mmHg 94%
22:00 -13°C° 0 mm 2 mps 751 mmHg 94%
23:00 -14°C° 0 mm 2 mps 751 mmHg 94%

Tomorrow, 7 March, Sunday

Time Temperature Precipitation Wind Pressure Humidity
00:00 -14°C° 0 mm 2 mps 751 mmHg 94%
01:00 -15°C° 0 mm 2 mps 751 mmHg 94%
02:00 -15°C° 0 mm 2 mps 751 mmHg 94%
03:00 -16°C° 0 mm 3 mps 751 mmHg 94%
04:00 -16°C° 0 mm 3 mps 750 mmHg 94%
05:00 -16°C° 0 mm 3 mps 750 mmHg 94%
06:00 -16°C° 0 mm 3 mps 750 mmHg 93%
07:00 -16°C° 0 mm 4 mps 749 mmHg 91%
08:00 -14°C° 0 mm 5 mps 749 mmHg 88%
09:00 -14°C° 0 mm 6 mps 748 mmHg 85%
10:00 -13°C° 0 mm 7 mps 747 mmHg 84%
11:00 -12°C° 0 mm 8 mps 746 mmHg 84%
12:00 -10°C° 0 mm 8 mps 745 mmHg 83%
13:00 -10°C° 0.3 mm 9 mps 744 mmHg 84%
14:00 -9°C° 0.3 mm 9 mps 743 mmHg 86%
15:00 -8°C° 0.3 mm 10 mps 741 mmHg 87%
16:00 -8°C° 0.5 mm 9 mps 740 mmHg 89%
17:00 -8°C° 0.5 mm 9 mps 739 mmHg 91%
18:00 -8°C° 0.5 mm 9 mps 738 mmHg 92%
19:00 -7°C° 0.5 mm 8 mps 738 mmHg 90%
20:00 -7°C° 0.5 mm 8 mps 738 mmHg 87%
21:00 -7°C° 0.5 mm 7 mps 738 mmHg 84%
22:00 -9°C° 0 mm 6 mps 738 mmHg 83%
23:00 -11°C° 0 mm 5 mps 739 mmHg 81%

Day after tomorrow, 8 March, Monday

Time Temperature Precipitation Wind Pressure Humidity
00:00 -12°C° 0 mm 4 mps 739 mmHg 80%
01:00 -12°C° 0 mm 4 mps 740 mmHg 81%
02:00 -13°C° 0 mm 5 mps 740 mmHg 82%
03:00 -12°C° 0 mm 5 mps 740 mmHg 83%
04:00 -12°C° 0 mm 5 mps 740 mmHg 85%
05:00 -12°C° 0 mm 5 mps 739 mmHg 86%
06:00 -12°C° 0 mm 5 mps 739 mmHg 88%
07:00 -11°C° 0.1 mm 6 mps 739 mmHg 88%
08:00 -12°C° 0.1 mm 7 mps 739 mmHg 88%
09:00 -11°C° 0.1 mm 8 mps 739 mmHg 89%
10:00 -11°C° 0 mm 8 mps 739 mmHg 87%
11:00 -12°C° 0 mm 7 mps 740 mmHg 85%
12:00 -12°C° 0 mm 7 mps 740 mmHg 83%
13:00 -11°C° 0 mm 7 mps 741 mmHg 83%
14:00 -10°C° 0 mm 6 mps 741 mmHg 83%
15:00 -10°C° 0 mm 6 mps 742 mmHg 83%
16:00 -10°C° 0 mm 5 mps 742 mmHg 84%
17:00 -11°C° 0 mm 5 mps 743 mmHg 86%
18:00 -11°C° 0 mm 4 mps 743 mmHg 87%
19:00 -12°C° 0 mm 4 mps 744 mmHg 88%
20:00 -12°C° 0 mm 4 mps 744 mmHg 89%
21:00 -14°C° 0 mm 4 mps 745 mmHg 91%
22:00 -14°C° 0 mm 4 mps 745 mmHg 92%
23:00 -14°C° 0 mm 3 mps 746 mmHg 94%

9 March, Tuesday

Time Temperature Precipitation Wind Pressure Humidity
00:00 -14°C° 0 mm 3 mps 746 mmHg 95%
01:00 -15°C° 0 mm 3 mps 747 mmHg 95%
02:00 -16°C° 0 mm 3 mps 747 mmHg 96%
03:00 -17°C° 0 mm 3 mps 748 mmHg 96%
04:00 -17°C° 0 mm 2 mps 748 mmHg 96%
05:00 -17°C° 0 mm 2 mps 748 mmHg 96%
06:00 -18°C° 0 mm 2 mps 749 mmHg 97%
07:00 -18°C° 0 mm 2 mps 749 mmHg 95%
08:00 -17°C° 0 mm 2 mps 750 mmHg 94%
09:00 -16°C° 0 mm 2 mps 750 mmHg 93%
10:00 -15°C° 0 mm 2 mps 750 mmHg 91%
11:00 -14°C° 0 mm 2 mps 751 mmHg 89%
12:00 -13°C° 0 mm 2 mps 751 mmHg 87%
13:00 -14°C° 0 mm 3 mps 751 mmHg 86%
14:00 -13°C° 0 mm 3 mps 751 mmHg 86%
15:00 -13°C° 0 mm 3 mps 751 mmHg 85%
16:00 -14°C° 0 mm 3 mps 751 mmHg 87%
17:00 -15°C° 0 mm 3 mps 752 mmHg 90%
18:00 -15°C° 0 mm 2 mps 752 mmHg 92%
19:00 -16°C° 0 mm 2 mps 752 mmHg 93%
20:00 -18°C° 0 mm 3 mps 753 mmHg 95%
21:00 -19°C° 0 mm 3 mps 754 mmHg 96%
22:00 -19°C° 0 mm 3 mps 754 mmHg 96%
23:00 -19°C° 0 mm 2 mps 754 mmHg 96%

10 March, Wednesday

Time Temperature Precipitation Wind Pressure Humidity
00:00 -20°C° 0 mm 2 mps 754 mmHg 96%
01:00 -21°C° 0 mm 2 mps 755 mmHg 97%
02:00 -23°C° 0 mm 2 mps 755 mmHg 97%
03:00 -24°C° 0 mm 2 mps 755 mmHg 97%
04:00 -25°C° 0 mm 2 mps 755 mmHg 97%
05:00 -25°C° 0 mm 2 mps 756 mmHg 98%
06:00 -26°C° 0 mm 2 mps 756 mmHg 98%
07:00 -26°C° 0 mm 2 mps 756 mmHg 96%
08:00 -26°C° 0 mm 3 mps 757 mmHg 95%
09:00 -26°C° 0 mm 3 mps 757 mmHg 93%
10:00 -24°C° 0 mm 3 mps 757 mmHg 91%
11:00 -21°C° 0 mm 2 mps 757 mmHg 88%
12:00 -20°C° 0 mm 2 mps 758 mmHg 85%
13:00 -19°C° 0 mm 2 mps 758 mmHg 85%
14:00 -19°C° 0 mm 2 mps 758 mmHg 84%
15:00 -18°C° 0 mm 2 mps 758 mmHg 83%
16:00 -19°C° 0 mm 2 mps 758 mmHg 86%
17:00 -20°C° 0 mm 2 mps 758 mmHg 90%
18:00 -21°C° 0 mm 2 mps 758 mmHg 93%
19:00 -20°C° 0 mm 1 mps 758 mmHg 94%
20:00 -21°C° 0 mm 1 mps 759 mmHg 95%
21:00 -22°C° 0 mm 1 mps 759 mmHg 96%
22:00 -22°C° 0 mm 1 mps 759 mmHg 97%
23:00 -23°C° 0 mm 1 mps 760 mmHg 97%

11 March, Thursday

Time Temperature Precipitation Wind Pressure Humidity
00:00 -23°C° 0 mm 1 mps 760 mmHg 98%
01:00 -24°C° 0 mm 1 mps 760 mmHg 98%
02:00 -24°C° 0 mm 1 mps 760 mmHg 98%
03:00 -25°C° 0 mm 1 mps 761 mmHg 98%
04:00 -25°C° 0 mm 1 mps 761 mmHg 98%
05:00 -25°C° 0 mm 1 mps 761 mmHg 97%
06:00 -25°C° 0 mm 0 mps 761 mmHg 97%
07:00 -24°C° 0 mm 0 mps 761 mmHg 94%
08:00 -22°C° 0 mm 0 mps 762 mmHg 91%
09:00 -21°C° 0 mm 0 mps 762 mmHg 88%
10:00 -19°C° 0 mm 0 mps 762 mmHg 83%
11:00 -17°C° 0 mm 1 mps 762 mmHg 79%
12:00 -15°C° 0 mm 1 mps 762 mmHg 74%
13:00 -15°C° 0 mm 1 mps 762 mmHg 74%
14:00 -14°C° 0 mm 1 mps 762 mmHg 74%
15:00 -14°C° 0 mm 1 mps 762 mmHg 74%
16:00 -15°C° 0 mm 1 mps 762 mmHg 78%
17:00 -17°C° 0 mm 1 mps 761 mmHg 83%
18:00 -18°C° 0 mm 1 mps 761 mmHg 87%
19:00 -21°C° 0 mm 2 mps 761 mmHg 88%
20:00 -23°C° 0 mm 2 mps 761 mmHg 89%
21:00 -23°C° 0 mm 2 mps 762 mmHg 90%
22:00 -25°C° 0 mm 3 mps 761 mmHg 89%
23:00 -25°C° 0 mm 3 mps 761 mmHg 88%
Show more